| time (UTC) | temp F | wind direction | speed knots | gust knots | rain 1hr in | rain 24hr in | rain mn in | humidity % | barometer mb |
| 20260904101503 | 57 | 0 | 0.0 | 0.0 | 0.00 | 0.00 | 0.00 | 63 | 1015.3 |
| 20260904101003 | 57 | 0 | 0.0 | 0.0 | 0.00 | 0.00 | 0.00 | 63 | 1015.3 |
| 20260904100503 | 57 | 0 | 0.0 | 0.0 | 0.00 | 0.00 | 0.00 | 63 | 1015.4 |
| 20260904100003 | 58 | 0 | 0.0 | 0.0 | 0.00 | 0.00 | 0.00 | 62 | 1015.3 |
| 20260904095502 | 58 | 0 | 0.0 | 0.0 | 0.00 | 0.00 | 0.00 | 62 | 1015.4 |
| 20260904095003 | 58 | 0 | 0.0 | 0.0 | 0.00 | 0.00 | 0.00 | 62 | 1015.4 |
| 20260904094503 | 58 | 0 | 0.0 | 0.0 | 0.00 | 0.00 | 0.00 | 61 | 1015.3 |
| 20260904094002 | 58 | 166 | 0.0 | 0.9 | 0.00 | 0.00 | 0.00 | 61 | 1015.4 |
| 20260904093503 | 58 | 169 | 0.0 | 0.9 | 0.00 | 0.00 | 0.00 | 61 | 1015.4 |
| 20260904091502 | 58 | 0 | 0.0 | 0.0 | 0.00 | 0.00 | 0.00 | 61 | 1015.4 |
| 20260904090004 | 59 | 0 | 0.0 | 0.0 | 0.00 | 0.00 | 0.00 | 59 | 1015.4 |
| 20260904085503 | 59 | 161 | 0.0 | 0.9 | 0.00 | 0.00 | 0.00 | 59 | 1015.5 |
| 20260904085003 | 60 | 160 | 0.0 | 0.9 | 0.00 | 0.00 | 0.00 | 59 | 1015.5 |
| 20260904084503 | 60 | 159 | 0.0 | 0.9 | 0.00 | 0.00 | 0.00 | 58 | 1015.6 |
| 20260904083503 | 60 | 0 | 0.0 | 0.0 | 0.00 | 0.00 | 0.00 | 57 | 1015.6 |
| 20260904083002 | 61 | 0 | 0.0 | 0.0 | 0.00 | 0.00 | 0.00 | 57 | 1015.7 |
| 20260904082503 | 61 | 135 | 0.0 | 0.9 | 0.00 | 0.00 | 0.00 | 56 | 1015.8 |
| 20260904082003 | 61 | 143 | 0.0 | 0.9 | 0.00 | 0.00 | 0.00 | 56 | 1015.9 |
| 20260904081503 | 62 | 160 | 0.0 | 0.9 | 0.00 | 0.00 | 0.00 | 54 | 1015.7 |
| 20260904081003 | 62 | 0 | 0.0 | 0.0 | 0.00 | 0.00 | 0.00 | 54 | 1015.7 |
| 20260904080503 | 62 | 164 | 0.9 | 0.9 | 0.00 | 0.00 | 0.00 | 54 | 1015.7 |
| 20260904080003 | 62 | 177 | 0.9 | 2.6 | 0.00 | 0.00 | 0.00 | 54 | 1015.7 |
| 20260904075503 | 62 | 217 | 1.7 | 1.7 | 0.00 | 0.00 | 0.00 | 54 | 1015.6 |
| 20260904075003 | 62 | 167 | 2.6 | 3.5 | 0.00 | 0.00 | 0.00 | 53 | 1015.6 |
| 20260904074503 | 62 | 164 | 2.6 | 7.0 | 0.00 | 0.00 | 0.00 | 53 | 1015.6 |
| 20260904074003 | 62 | 167 | 3.5 | 4.3 | 0.00 | 0.00 | 0.00 | 54 | 1015.6 |
| 20260904073003 | 62 | 145 | 3.5 | 6.1 | 0.00 | 0.00 | 0.00 | 54 | 1015.7 |
| 20260904072502 | 62 | 153 | 3.5 | 6.1 | 0.00 | 0.00 | 0.00 | 54 | 1015.6 |
| 20260904072003 | 62 | 147 | 2.6 | 6.1 | 0.00 | 0.00 | 0.00 | 54 | 1015.6 |
| 20260904071503 | 62 | 150 | 1.7 | 8.7 | 0.00 | 0.00 | 0.00 | 55 | 1015.6 |
| 20260904071003 | 62 | 163 | 3.5 | 4.3 | 0.00 | 0.00 | 0.00 | 54 | 1015.5 |
| 20260904070503 | 61 | 156 | 3.5 | 7.8 | 0.00 | 0.00 | 0.00 | 56 | 1015.5 |
| 20260904070004 | 60 | 152 | 1.7 | 7.8 | 0.00 | 0.00 | 0.00 | 57 | 1015.6 |
| 20260904065502 | 60 | 153 | 0.0 | 7.8 | 0.00 | 0.00 | 0.00 | 57 | 1015.6 |
| 20260904064503 | 60 | 172 | 0.0 | 1.7 | 0.00 | 0.00 | 0.00 | 56 | 1015.5 |
| 20260904064003 | 60 | 192 | 0.0 | 0.9 | 0.00 | 0.00 | 0.00 | 55 | 1015.5 |
| 20260904063502 | 60 | 209 | 0.0 | 0.9 | 0.00 | 0.00 | 0.00 | 55 | 1015.5 |
| 20260904063003 | 60 | 227 | 0.0 | 0.9 | 0.00 | 0.00 | 0.00 | 55 | 1015.4 |
| 20260904062503 | 60 | 0 | 0.0 | 0.0 | 0.00 | 0.00 | 0.00 | 54 | 1015.3 |
| 20260904062003 | 60 | 0 | 0.0 | 0.0 | 0.00 | 0.00 | 0.00 | 55 | 1015.5 |
| 20260904061502 | 60 | 0 | 0.0 | 0.0 | 0.00 | 0.00 | 0.00 | 54 | 1015.4 |
| 20260904061003 | 60 | 0 | 0.0 | 0.0 | 0.00 | 0.00 | 0.00 | 53 | 1015.3 |
| 20260904060503 | 60 | 0 | 0.0 | 0.0 | 0.00 | 0.00 | 0.00 | 53 | 1015.3 |
| 20260904060003 | 60 | 0 | 0.0 | 0.0 | 0.00 | 0.00 | 0.00 | 53 | 1015.3 |
| 20260904055503 | 60 | 232 | 0.0 | 0.9 | 0.00 | 0.00 | 0.00 | 53 | 1015.2 |
| 20260904055003 | 60 | 232 | 0.0 | 0.9 | 0.00 | 0.00 | 0.00 | 52 | 1015.2 |
| 20260904054503 | 60 | 215 | 0.0 | 1.7 | 0.00 | 0.00 | 0.00 | 53 | 1015.2 |
| 20260904054003 | 60 | 0 | 0.0 | 0.0 | 0.00 | 0.00 | 0.00 | 53 | 1015.2 |
| 20260904053503 | 60 | 95 | 0.0 | 0.9 | 0.00 | 0.00 | 0.00 | 53 | 1015.2 |
| 20260904053003 | 60 | 0 | 0.0 | 0.0 | 0.00 | 0.00 | 0.00 | 52 | 1015.2 |
| 20260904052502 | 60 | 95 | 0.0 | 0.9 | 0.00 | 0.00 | 0.00 | 52 | 1015.3 |
| 20260904052002 | 60 | 0 | 0.0 | 0.0 | 0.00 | 0.00 | 0.00 | 51 | 1015.3 |
| 20260904051503 | 61 | 148 | 0.0 | 1.7 | 0.00 | 0.00 | 0.00 | 52 | 1015.3 |
| 20260904051003 | 61 | 137 | 0.0 | 1.7 | 0.00 | 0.00 | 0.00 | 52 | 1015.4 |
| 20260904050503 | 61 | 133 | 0.9 | 1.7 | 0.00 | 0.00 | 0.00 | 52 | 1015.4 |
| 20260904050004 | 61 | 167 | 0.9 | 1.7 | 0.00 | 0.00 | 0.00 | 52 | 1015.4 |
| 20260904045503 | 61 | 120 | 0.0 | 2.6 | 0.00 | 0.00 | 0.00 | 52 | 1015.4 |
| 20260904045003 | 61 | 144 | 0.0 | 1.7 | 0.00 | 0.00 | 0.00 | 51 | 1015.4 |
| 20260904044503 | 62 | 143 | 0.0 | 1.7 | 0.00 | 0.00 | 0.00 | 51 | 1015.3 |
| 20260904044003 | 62 | 150 | 0.9 | 1.7 | 0.00 | 0.00 | 0.00 | 51 | 1015.3 |
| 20260904043503 | 62 | 147 | 0.9 | 1.7 | 0.00 | 0.00 | 0.00 | 51 | 1015.3 |
| 20260904043004 | 62 | 139 | 0.9 | 1.7 | 0.00 | 0.00 | 0.00 | 51 | 1015.2 |
| 20260904042503 | 62 | 146 | 0.0 | 1.7 | 0.00 | 0.00 | 0.00 | 51 | 1015.4 |
| 20260904042003 | 62 | 154 | 0.9 | 0.9 | 0.00 | 0.00 | 0.00 | 50 | 1015.3 |
| 20260904041502 | 62 | 150 | 0.9 | 2.6 | 0.00 | 0.00 | 0.00 | 51 | 1015.4 |
| 20260904041003 | 63 | 137 | 0.0 | 1.7 | 0.00 | 0.00 | 0.00 | 50 | 1015.3 |
| 20260904040503 | 63 | 138 | 0.9 | 1.7 | 0.00 | 0.00 | 0.00 | 50 | 1015.2 |
| 20260904040003 | 63 | 146 | 1.7 | 1.7 | 0.00 | 0.00 | 0.00 | 50 | 1015.2 |
| 20260904035503 | 63 | 144 | 1.7 | 2.6 | 0.00 | 0.00 | 0.00 | 50 | 1015.2 |
| 20260904035003 | 63 | 141 | 1.7 | 3.5 | 0.00 | 0.00 | 0.00 | 50 | 1015.2 |
| 20260904034004 | 63 | 146 | 1.7 | 3.5 | 0.00 | 0.00 | 0.00 | 49 | 1015.2 |
| 20260904033503 | 63 | 152 | 0.9 | 2.6 | 0.00 | 0.00 | 0.00 | 49 | 1015.3 |
| 20260904033003 | 63 | 154 | 0.9 | 1.7 | 0.00 | 0.00 | 0.00 | 48 | 1015.2 |
| 20260904032003 | 64 | 163 | 1.7 | 2.6 | 0.00 | 0.00 | 0.00 | 48 | 1015.2 |
| 20260904031004 | 64 | 156 | 1.7 | 4.3 | 0.00 | 0.00 | 0.00 | 47 | 1015.1 |
| 20260904030503 | 64 | 163 | 0.9 | 2.6 | 0.00 | 0.00 | 0.00 | 46 | 1015.2 |
| 20260904030003 | 64 | 160 | 0.9 | 3.5 | 0.00 | 0.00 | 0.00 | 45 | 1015.2 |
| 20260904025003 | 65 | 174 | 1.7 | 1.7 | 0.00 | 0.00 | 0.00 | 45 | 1015.2 |
| 20260904024003 | 65 | 174 | 2.6 | 2.6 | 0.00 | 0.00 | 0.00 | 45 | 1015.2 |
| 20260904023504 | 66 | 181 | 3.5 | 4.3 | 0.00 | 0.00 | 0.00 | 45 | 1015.2 |
| 20260904023003 | 66 | 181 | 3.5 | 7.8 | 0.00 | 0.00 | 0.00 | 45 | 1015.2 |
| 20260904022502 | 66 | 191 | 3.5 | 5.2 | 0.00 | 0.00 | 0.00 | 45 | 1015.2 |
| 20260904021003 | 66 | 209 | 4.3 | 7.8 | 0.00 | 0.00 | 0.00 | 44 | 1015.2 |
| 20260904020004 | 67 | 219 | 5.2 | 7.8 | 0.00 | 0.00 | 0.00 | 42 | 1015.1 |
| 20260904015503 | 67 | 235 | 5.2 | 10.4 | 0.00 | 0.00 | 0.00 | 41 | 1015.2 |
| 20260904015003 | 67 | 229 | 6.1 | 9.6 | 0.00 | 0.00 | 0.00 | 41 | 1015.2 |
| 20260904014003 | 68 | 232 | 6.1 | 12.2 | 0.00 | 0.00 | 0.00 | 39 | 1015.1 |
| 20260904013503 | 69 | 220 | 6.1 | 8.7 | 0.00 | 0.00 | 0.00 | 38 | 1015.2 |
| 20260904013004 | 69 | 226 | 7.0 | 6.1 | 0.00 | 0.00 | 0.00 | 38 | 1015.3 |
| 20260904012503 | 69 | 235 | 7.0 | 11.3 | 0.00 | 0.00 | 0.00 | 37 | 1015.2 |
| 20260904012003 | 69 | 233 | 7.0 | 11.3 | 0.00 | 0.00 | 0.00 | 37 | 1015.3 |
| 20260904011503 | 70 | 228 | 7.0 | 11.3 | 0.00 | 0.00 | 0.00 | 37 | 1015.2 |
| 20260904011004 | 70 | 218 | 7.8 | 10.4 | 0.00 | 0.00 | 0.00 | 37 | 1015.2 |
| 20260904010503 | 70 | 214 | 7.8 | 8.7 | 0.00 | 0.00 | 0.00 | 37 | 1015.3 |
| 20260904005503 | 70 | 219 | 7.8 | 11.3 | 0.00 | 0.00 | 0.00 | 36 | 1015.3 |
| 20260904005003 | 70 | 220 | 7.8 | 11.3 | 0.00 | 0.00 | 0.00 | 35 | 1015.3 |
| 20260904003503 | 71 | 212 | 7.8 | 10.4 | 0.00 | 0.00 | 0.00 | 34 | 1015.3 |
| 20260904003003 | 71 | 218 | 7.8 | 13.0 | 0.00 | 0.00 | 0.00 | 34 | 1015.3 |
| 20260904002503 | 71 | 212 | 7.0 | 12.2 | 0.00 | 0.00 | 0.00 | 34 | 1015.3 |
| 20260904001504 | 71 | 210 | 7.8 | 9.6 | 0.00 | 0.00 | 0.00 | 34 | 1015.4 |
| 20260904001003 | 71 | 216 | 8.7 | 13.9 | 0.00 | 0.00 | 0.00 | 34 | 1015.4 |
| 20260904000503 | 71 | 222 | 8.7 | 13.9 | 0.00 | 0.00 | 0.00 | 35 | 1015.4 |
| 20260904000003 | 71 | 222 | 8.7 | 13.9 | 0.00 | 0.00 | 0.00 | 35 | 1015.3 |
| 20260903235503 | 71 | 234 | 8.7 | 15.6 | 0.00 | 0.00 | 0.00 | 35 | 1015.3 |
| 20260903235004 | 71 | 221 | 8.7 | 12.2 | 0.00 | 0.00 | 0.00 | 35 | 1015.4 |
| 20260903234503 | 71 | 208 | 8.7 | 14.8 | 0.00 | 0.00 | 0.00 | 36 | 1015.4 |
| 20260903233003 | 71 | 227 | 9.6 | 14.8 | 0.00 | 0.00 | 0.00 | 35 | 1015.4 |
| 20260903231504 | 71 | 231 | 9.6 | 16.5 | 0.00 | 0.00 | 0.00 | 36 | 1015.4 |
| 20260903230503 | 72 | 226 | 9.6 | 16.5 | 0.00 | 0.00 | 0.00 | 37 | 1015.5 |
| 20260903230003 | 72 | 206 | 8.7 | 16.5 | 0.00 | 0.00 | 0.00 | 37 | 1015.7 |
| 20260903225503 | 72 | 223 | 8.7 | 13.0 | 0.00 | 0.00 | 0.00 | 36 | 1015.7 |
| 20260903225004 | 72 | 230 | 8.7 | 15.6 | 0.00 | 0.00 | 0.00 | 37 | 1015.7 |
| 20260903224503 | 72 | 226 | 7.8 | 15.6 | 0.00 | 0.00 | 0.00 | 38 | 1015.8 |
| 20260903224003 | 72 | 233 | 7.8 | 12.2 | 0.00 | 0.00 | 0.00 | 38 | 1015.8 |
| 20260903223503 | 72 | 230 | 7.8 | 13.9 | 0.00 | 0.00 | 0.00 | 39 | 1015.9 |
| 20260903223004 | 72 | 227 | 7.8 | 12.2 | 0.00 | 0.00 | 0.00 | 39 | 1015.9 |
| 20260903222003 | 72 | 228 | 8.7 | 13.9 | 0.00 | 0.00 | 0.00 | 39 | 1016.0 |
| 20260903221503 | 72 | 228 | 7.8 | 15.6 | 0.00 | 0.00 | 0.00 | 40 | 1016.0 |
| 20260903221004 | 72 | 230 | 7.8 | 13.9 | 0.00 | 0.00 | 0.00 | 39 | 1016.0 |
| 20260903220503 | 73 | 233 | 7.0 | 14.8 | 0.00 | 0.00 | 0.00 | 38 | 1016.0 |
| 20260903220003 | 74 | 220 | 7.0 | 11.3 | 0.00 | 0.00 | 0.00 | 39 | 1016.1 |
| 20260903214503 | 74 | 204 | 2.6 | 5.2 | 0.00 | 0.00 | 0.00 | 41 | 1016.3 |
| 20260903214004 | 74 | 168 | 3.5 | 7.0 | 0.00 | 0.00 | 0.00 | 41 | 1016.3 |
| 20260903213004 | 73 | 230 | 3.5 | 5.2 | 0.00 | 0.00 | 0.00 | 41 | 1016.4 |
| 20260903212502 | 73 | 240 | 4.3 | 6.1 | 0.00 | 0.00 | 0.00 | 42 | 1016.3 |
| 20260903212002 | 73 | 203 | 4.3 | 9.6 | 0.00 | 0.00 | 0.00 | 42 | 1016.4 |
| 20260903211503 | 73 | 229 | 5.2 | 10.4 | 0.00 | 0.00 | 0.00 | 42 | 1016.4 |
| 20260903211003 | 73 | 206 | 7.0 | 8.7 | 0.00 | 0.00 | 0.00 | 42 | 1016.4 |
| 20260903210502 | 72 | 215 | 7.8 | 12.2 | 0.00 | 0.00 | 0.00 | 43 | 1016.4 |
| 20260903210003 | 72 | 226 | 7.8 | 13.0 | 0.00 | 0.00 | 0.00 | 43 | 1016.3 |
| 20260903205502 | 72 | 194 | 7.8 | 13.9 | 0.00 | 0.00 | 0.00 | 44 | 1016.3 |
| 20260903205002 | 71 | 224 | 7.8 | 14.8 | 0.00 | 0.00 | 0.00 | 45 | 1016.2 |
| 20260903204502 | 70 | 233 | 9.6 | 14.8 | 0.00 | 0.00 | 0.00 | 47 | 1016.3 |
| 20260903204002 | 69 | 232 | 9.6 | 13.9 | 0.00 | 0.00 | 0.00 | 48 | 1016.3 |
| 20260903203502 | 69 | 235 | 8.7 | 13.9 | 0.00 | 0.00 | 0.00 | 48 | 1016.2 |
| 20260903202502 | 69 | 236 | 9.6 | 16.5 | 0.00 | 0.00 | 0.00 | 49 | 1016.4 |
| 20260903202002 | 68 | 231 | 11.3 | 15.6 | 0.00 | 0.00 | 0.00 | 50 | 1016.5 |
| 20260903201502 | 68 | 241 | 11.3 | 17.4 | 0.00 | 0.00 | 0.00 | 50 | 1016.4 |
| 20260903201002 | 68 | 236 | 10.4 | 19.1 | 0.00 | 0.00 | 0.00 | 50 | 1016.5 |
| 20260903200502 | 69 | 239 | 11.3 | 14.8 | 0.00 | 0.00 | 0.00 | 50 | 1016.6 |
| 20260903200002 | 68 | 234 | 10.4 | 15.6 | 0.00 | 0.00 | 0.00 | 50 | 1016.6 |
| 20260903195503 | 68 | 241 | 9.6 | 16.5 | 0.00 | 0.00 | 0.00 | 51 | 1016.7 |
| 20260903195003 | 68 | 243 | 9.6 | 12.2 | 0.00 | 0.00 | 0.00 | 52 | 1016.8 |
| 20260903194502 | 67 | 241 | 10.4 | 18.2 | 0.00 | 0.00 | 0.00 | 53 | 1016.6 |
| 20260903194002 | 67 | 241 | 11.3 | 15.6 | 0.00 | 0.00 | 0.00 | 53 | 1016.7 |
| 20260903193503 | 67 | 238 | 10.4 | 17.4 | 0.00 | 0.00 | 0.00 | 53 | 1016.8 |
| 20260903193002 | 67 | 238 | 10.4 | 15.6 | 0.00 | 0.00 | 0.00 | 52 | 1016.9 |
| 20260903192502 | 67 | 235 | 11.3 | 15.6 | 0.00 | 0.00 | 0.00 | 52 | 1016.9 |
| 20260903192002 | 67 | 235 | 10.4 | 16.5 | 0.00 | 0.00 | 0.00 | 51 | 1016.8 |
| 20260903191502 | 67 | 235 | 9.6 | 15.6 | 0.00 | 0.00 | 0.00 | 49 | 1016.8 |
| 20260903191003 | 67 | 236 | 9.6 | 14.8 | 0.00 | 0.00 | 0.00 | 52 | 1017.1 |
| 20260903190502 | 67 | 235 | 10.4 | 14.8 | 0.00 | 0.00 | 0.00 | 52 | 1017.0 |
| 20260903190003 | 66 | 236 | 11.3 | 15.6 | 0.00 | 0.00 | 0.00 | 53 | 1017.2 |
| 20260903185503 | 66 | 237 | 10.4 | 14.8 | 0.00 | 0.00 | 0.00 | 51 | 1017.1 |
| 20260903185002 | 66 | 237 | 9.6 | 16.5 | 0.00 | 0.00 | 0.00 | 54 | 1017.3 |
| 20260903184503 | 66 | 233 | 9.6 | 15.6 | 0.00 | 0.00 | 0.00 | 53 | 1017.4 |
| 20260903184002 | 66 | 237 | 9.6 | 17.4 | 0.00 | 0.00 | 0.00 | 52 | 1017.3 |
| 20260903183502 | 66 | 234 | 9.6 | 14.8 | 0.00 | 0.00 | 0.00 | 53 | 1017.4 |
| 20260903183003 | 66 | 237 | 8.7 | 13.0 | 0.00 | 0.00 | 0.00 | 53 | 1017.5 |
| 20260903182502 | 66 | 239 | 7.8 | 15.6 | 0.00 | 0.00 | 0.00 | 52 | 1017.5 |
| 20260903182002 | 65 | 233 | 8.7 | 13.9 | 0.00 | 0.00 | 0.00 | 54 | 1017.5 |
| 20260903181502 | 65 | 238 | 7.8 | 13.0 | 0.00 | 0.00 | 0.00 | 55 | 1017.6 |
| 20260903181003 | 64 | 235 | 8.7 | 13.0 | 0.00 | 0.00 | 0.00 | 56 | 1017.6 |
| 20260903180502 | 64 | 232 | 8.7 | 12.2 | 0.00 | 0.00 | 0.00 | 56 | 1017.6 |
| 20260903180003 | 64 | 236 | 7.8 | 15.6 | 0.00 | 0.00 | 0.00 | 56 | 1017.7 |
| 20260903175502 | 64 | 238 | 6.1 | 13.0 | 0.00 | 0.00 | 0.00 | 58 | 1017.8 |
| 20260903175002 | 63 | 239 | 6.1 | 13.9 | 0.00 | 0.00 | 0.00 | 60 | 1017.9 |
| 20260903174503 | 63 | 239 | 6.1 | 12.2 | 0.00 | 0.00 | 0.00 | 60 | 1017.9 |
| 20260903174002 | 63 | 245 | 6.1 | 12.2 | 0.00 | 0.00 | 0.00 | 60 | 1017.8 |
| 20260903173503 | 62 | 247 | 7.0 | 12.2 | 0.00 | 0.00 | 0.00 | 61 | 1017.9 |
| 20260903173002 | 62 | 242 | 7.0 | 11.3 | 0.00 | 0.00 | 0.00 | 61 | 1018.0 |
| 20260903172003 | 62 | 242 | 4.3 | 10.4 | 0.00 | 0.00 | 0.00 | 61 | 1018.1 |
| 20260903171502 | 62 | 252 | 4.3 | 8.7 | 0.00 | 0.00 | 0.00 | 61 | 1018.1 |
| 20260903171002 | 61 | 242 | 5.2 | 7.0 | 0.00 | 0.00 | 0.00 | 62 | 1018.2 |
| 20260903170502 | 61 | 243 | 3.5 | 8.7 | 0.00 | 0.00 | 0.00 | 61 | 1018.1 |
| 20260903170002 | 61 | 245 | 2.6 | 9.6 | 0.00 | 0.00 | 0.00 | 62 | 1018.1 |
| 20260903165502 | 61 | 245 | 2.6 | 7.8 | 0.00 | 0.00 | 0.00 | 63 | 1018.1 |
| 20260903164502 | 60 | 235 | 2.6 | 8.7 | 0.00 | 0.00 | 0.00 | 63 | 1018.0 |
| 20260903164002 | 60 | 242 | 1.7 | 7.8 | 0.00 | 0.00 | 0.00 | 64 | 1018.1 |
| 20260903163502 | 60 | 245 | 1.7 | 3.5 | 0.00 | 0.00 | 0.00 | 64 | 1018.0 |
| 20260903162502 | 59 | 244 | 2.6 | 4.3 | 0.00 | 0.00 | 0.00 | 66 | 1018.1 |
| 20260903162003 | 59 | 236 | 2.6 | 4.3 | 0.00 | 0.00 | 0.00 | 66 | 1018.1 |
| 20260903161503 | 58 | 237 | 2.6 | 4.3 | 0.00 | 0.00 | 0.00 | 66 | 1018.1 |
| 20260903161002 | 58 | 241 | 2.6 | 7.0 | 0.00 | 0.00 | 0.00 | 66 | 1018.0 |
| 20260903160502 | 58 | 241 | 2.6 | 7.0 | 0.00 | 0.00 | 0.00 | 67 | 1018.1 |
| 20260903155502 | 58 | 242 | 2.6 | 7.0 | 0.00 | 0.00 | 0.00 | 67 | 1018.2 |
| 20260903155003 | 57 | 241 | 1.7 | 6.1 | 0.00 | 0.00 | 0.00 | 67 | 1018.1 |
| 20260903154502 | 57 | 241 | 1.7 | 3.5 | 0.00 | 0.00 | 0.00 | 68 | 1018.1 |
| 20260903154002 | 57 | 241 | 0.9 | 2.6 | 0.00 | 0.00 | 0.00 | 68 | 1018.1 |
| 20260903153502 | 57 | 249 | 0.9 | 2.6 | 0.00 | 0.00 | 0.00 | 68 | 1018.2 |
| 20260903153002 | 56 | 235 | 0.9 | 2.6 | 0.00 | 0.00 | 0.00 | 69 | 1018.2 |
| 20260903152503 | 56 | 244 | 0.9 | 1.7 | 0.00 | 0.00 | 0.00 | 70 | 1018.2 |
| 20260903152002 | 55 | 249 | 0.9 | 1.7 | 0.00 | 0.00 | 0.00 | 71 | 1018.2 |
| 20260903151502 | 55 | 252 | 0.0 | 2.6 | 0.00 | 0.00 | 0.00 | 72 | 1018.2 |
| 20260903151002 | 54 | 288 | 0.0 | 0.9 | 0.00 | 0.00 | 0.00 | 73 | 1018.3 |
| 20260903150502 | 54 | 269 | 0.0 | 1.7 | 0.00 | 0.00 | 0.00 | 73 | 1018.3 |
| 20260903150003 | 53 | 267 | 0.0 | 0.9 | 0.00 | 0.00 | 0.00 | 73 | 1018.3 |
| 20260903145503 | 53 | 262 | 0.0 | 0.9 | 0.00 | 0.00 | 0.00 | 73 | 1018.4 |
| 20260903145002 | 53 | 261 | 0.0 | 0.9 | 0.00 | 0.00 | 0.00 | 72 | 1018.3 |
| 20260903144502 | 53 | 260 | 0.0 | 0.9 | 0.00 | 0.00 | 0.00 | 72 | 1018.3 |
| 20260903144002 | 53 | 0 | 0.0 | 0.0 | 0.00 | 0.00 | 0.00 | 72 | 1018.3 |
| 20260903143503 | 53 | 260 | 0.0 | 0.9 | 0.00 | 0.00 | 0.00 | 71 | 1018.2 |
| 20260903143002 | 53 | 0 | 0.0 | 0.0 | 0.00 | 0.00 | 0.00 | 71 | 1018.2 |
| 20260903142502 | 53 | 231 | 0.0 | 1.7 | 0.00 | 0.00 | 0.00 | 71 | 1018.1 |
| 20260903142003 | 53 | 169 | 0.0 | 0.9 | 0.00 | 0.00 | 0.00 | 71 | 1018.1 |
| 20260903141502 | 53 | 0 | 0.0 | 0.0 | 0.00 | 0.00 | 0.00 | 72 | 1018.1 |
| 20260903140003 | 53 | 0 | 0.0 | 0.0 | 0.00 | 0.00 | 0.00 | 73 | 1018.3 |
| 20260903135502 | 53 | 0 | 0.0 | 0.0 | 0.00 | 0.00 | 0.00 | 71 | 1018.0 |
| 20260903135002 | 53 | 0 | 0.0 | 0.0 | 0.00 | 0.00 | 0.00 | 71 | 1017.9 |
| 20260903134502 | 54 | 0 | 0.0 | 0.0 | 0.00 | 0.00 | 0.00 | 71 | 1017.9 |
| 20260903134003 | 54 | 0 | 0.0 | 0.0 | 0.00 | 0.00 | 0.00 | 71 | 1017.8 |
| 20260903132502 | 54 | 145 | 0.0 | 0.9 | 0.00 | 0.00 | 0.00 | 70 | 1017.7 |
| 20260903131503 | 54 | 0 | 0.0 | 0.0 | 0.00 | 0.00 | 0.00 | 70 | 1017.6 |
| 20260903131002 | 54 | 138 | 0.0 | 0.9 | 0.00 | 0.00 | 0.00 | 70 | 1017.7 |
| 20260903130502 | 54 | 0 | 0.0 | 0.0 | 0.00 | 0.00 | 0.00 | 70 | 1017.7 |
| 20260903130003 | 53 | 137 | 0.0 | 0.9 | 0.00 | 0.00 | 0.00 | 70 | 1017.7 |
| 20260903125502 | 53 | 0 | 0.0 | 0.0 | 0.00 | 0.00 | 0.00 | 70 | 1017.7 |
| 20260903125002 | 53 | 0 | 0.0 | 0.0 | 0.00 | 0.00 | 0.00 | 70 | 1017.7 |
| 20260903123003 | 54 | 0 | 0.0 | 0.0 | 0.00 | 0.00 | 0.00 | 70 | 1017.9 |
| 20260903122503 | 54 | 0 | 0.0 | 0.0 | 0.00 | 0.00 | 0.00 | 70 | 1017.9 |
| 20260903122002 | 54 | 0 | 0.0 | 0.0 | 0.00 | 0.00 | 0.00 | 70 | 1017.9 |
| 20260903121503 | 54 | 0 | 0.0 | 0.0 | 0.00 | 0.00 | 0.00 | 70 | 1017.8 |
| 20260903120502 | 54 | 176 | 0.0 | 0.9 | 0.00 | 0.00 | 0.00 | 70 | 1017.8 |
| 20260903120003 | 53 | 182 | 0.0 | 0.9 | 0.00 | 0.00 | 0.00 | 69 | 1017.8 |
| 20260903115502 | 54 | 182 | 0.0 | 0.9 | 0.00 | 0.00 | 0.00 | 69 | 1017.8 |
| 20260903115002 | 54 | 0 | 0.0 | 0.0 | 0.00 | 0.00 | 0.00 | 68 | 1017.8 |
| 20260903114503 | 54 | 182 | 0.0 | 0.9 | 0.00 | 0.00 | 0.00 | 68 | 1017.9 |
| 20260903114002 | 54 | 183 | 0.0 | 0.9 | 0.00 | 0.00 | 0.00 | 67 | 1017.8 |
| 20260903113503 | 54 | 182 | 0.0 | 0.9 | 0.00 | 0.00 | 0.00 | 67 | 1017.9 |
| 20260903113002 | 54 | 0 | 0.0 | 0.0 | 0.00 | 0.00 | 0.00 | 67 | 1017.8 |
| 20260903112502 | 54 | 0 | 0.0 | 0.0 | 0.00 | 0.00 | 0.00 | 67 | 1018.0 |
| 20260903112003 | 54 | 182 | 0.0 | 0.9 | 0.00 | 0.00 | 0.00 | 67 | 1017.9 |
| 20260903111503 | 54 | 182 | 0.0 | 2.6 | 0.00 | 0.00 | 0.00 | 67 | 1017.9 |
| 20260903111002 | 54 | 182 | 0.0 | 0.9 | 0.00 | 0.00 | 0.00 | 67 | 1018.0 |
| 20260903110503 | 54 | 181 | 0.0 | 0.9 | 0.00 | 0.00 | 0.00 | 66 | 1018.0 |
| 20260903110003 | 55 | 158 | 0.0 | 0.9 | 0.00 | 0.00 | 0.00 | 66 | 1018.0 |
| 20260903105503 | 55 | 155 | 0.0 | 0.9 | 0.00 | 0.00 | 0.00 | 67 | 1018.1 |
| 20260903105003 | 55 | 154 | 0.0 | 0.9 | 0.00 | 0.00 | 0.00 | 66 | 1018.1 |
| 20260903104503 | 55 | 0 | 0.0 | 0.0 | 0.00 | 0.00 | 0.00 | 65 | 1018.0 |
| 20260903104003 | 55 | 149 | 0.0 | 0.9 | 0.00 | 0.00 | 0.00 | 66 | 1018.1 |
| 20260903103503 | 55 | 0 | 0.0 | 0.0 | 0.00 | 0.00 | 0.00 | 65 | 1018.2 |
| 20260903103003 | 56 | 0 | 0.0 | 0.0 | 0.00 | 0.00 | 0.00 | 64 | 1018.0 |
| 20260903102503 | 56 | 0 | 0.0 | 0.0 | 0.00 | 0.00 | 0.00 | 64 | 1018.1 |
| 20260903102002 | 56 | 0 | 0.0 | 0.0 | 0.00 | 0.00 | 0.00 | 64 | 1018.2 |